Branson, MO

1:36 PM CDT on April 23, 2017 (GMT -0500)
Branson

Weather History for KBBG - November, 2013

Change the Weather History Date:

Thursday, November 28, 2013

  Actual Average (KHRO) Record (KHRO)
Temperature  
Mean Temperature 38 °F -  
Max Temperature 53 °F 47 °F 82 °F (1949)
Min Temperature 24 °F 31 °F 9 °F (1976)
Degree Days  
Heating Degree Days 26    
Moisture  
Dew Point 22 °F    
Average Humidity 42    
Maximum Humidity 65    
Minimum Humidity 33    
Precipitation  
Precipitation 0.00 in - - ()
Sea Level Pressure  
Sea Level Pressure 30.33 in    
Wind  
Wind Speed 2 mph (WSW)    
Max Wind Speed 13 mph    
Max Gust Speed 21 mph    
Visibility 10 miles    
Events      
Averages and records for this station are not official NWS values.
T = Trace of Precipitation, MM = Missing Value Source: NWS Daily Summary

Daily Weather History Graph

Daily Weather History Graph

Search for Another Location

Airport or City:

Trip Planner

Search our weather history database for the weather conditions in past years. The results will help you decide how hot, cold, wet, or windy it might be!

Date:

Astronomy

Nov. 28, 2013 Rise Set
Actual Time 7:03 AM CST 4:57 PM CST
Civil Twilight 6:35 AM CST 5:26 PM CST
Nautical Twilight 6:03 AM CST 5:57 PM CST
Astronomical Twilight 5:32 AM CST 6:29 PM CST
Moon 2:13 AM CST (11/28) 2:01 PM CST (11/28)
Length of Visible Light 10h 50m
Length of Day
9h 54m
Waning Crescent, 22% of the Moon is Illuminated
Nov 28
Waning Crescent
Dec 2
New
Dec 9
First Quarter
Dec 17
Full
Dec 25
Last Quarter

Hourly Weather History & Observations

Time (CST) Temp. Windchill Dew Point Humidity Pressure Visibility Wind Dir Wind Speed Gust Speed Precip Events Conditions
12:15 AM 24.8 °F - - N/A% 30.29 in 10.0 mi Calm Calm - N/A   Clear
12:35 AM 26.6 °F - - N/A% 30.29 in 10.0 mi Calm Calm - N/A   Clear
12:55 AM 26.6 °F 22.6 °F - N/A% 30.29 in 10.0 mi SSW 3.5 mph - N/A   Clear
1:15 AM 26.6 °F - - N/A% 30.28 in 10.0 mi Calm Calm - N/A   Clear
1:35 AM 26.6 °F - - N/A% 30.29 in 10.0 mi Calm Calm - N/A   Clear
1:55 AM 26.6 °F 21.2 °F - N/A% 30.28 in 10.0 mi SSW 4.6 mph - N/A   Clear
2:15 AM 26.6 °F 22.6 °F - N/A% 30.28 in 10.0 mi SW 3.5 mph - N/A   Clear
2:35 AM 26.6 °F - - N/A% 30.28 in 10.0 mi Calm Calm - N/A   Clear
2:55 AM 26.6 °F - - N/A% 30.28 in 10.0 mi Calm Calm - N/A   Clear
3:15 AM 26.6 °F - - N/A% 30.28 in 10.0 mi Calm Calm - N/A   Clear
3:35 AM 24.8 °F - - N/A% 30.28 in 10.0 mi Calm Calm - N/A   Clear
3:55 AM 24.8 °F - - N/A% 30.28 in 10.0 mi Calm Calm - N/A   Clear
4:15 AM 24.8 °F - - N/A% 30.27 in 10.0 mi Calm Calm - N/A   Clear
4:35 AM 24.8 °F - - N/A% 30.27 in 10.0 mi Calm Calm - N/A   Clear
4:55 AM 26.6 °F - - N/A% 30.27 in 10.0 mi Calm Calm - N/A   Clear
5:15 AM 26.6 °F - - N/A% 30.27 in 10.0 mi Calm Calm - N/A   Clear
5:35 AM 28.4 °F - - N/A% 30.27 in 10.0 mi Calm Calm - N/A   Clear
5:55 AM 28.4 °F - - N/A% 30.28 in 10.0 mi Calm Calm - N/A   Clear
6:15 AM 30.2 °F - - N/A% 30.29 in 10.0 mi Calm Calm - N/A   Clear
6:35 AM 28.4 °F - - N/A% 30.29 in 10.0 mi Calm Calm - N/A   Clear
6:50 AM 28.4 °F 23.3 °F 10.4 °F 47% 30.30 in 10.0 mi South 4.6 mph - N/A   Clear
7:50 AM 32.0 °F 27.5 °F 10.4 °F 41% 30.30 in 10.0 mi SSW 4.6 mph - N/A   Clear
8:50 AM 37.4 °F 32.1 °F 10.4 °F 33% 30.30 in 10.0 mi SSW 6.9 mph - N/A   Clear
9:55 AM 42.8 °F 36.2 °F 17.6 °F 36% 30.32 in 10.0 mi WSW 12.7 mph - N/A   Clear
10:45 AM 46.4 °F 41.5 °F 19.4 °F 34% 30.33 in 10.0 mi West 10.4 mph 20.7 mph N/A   Clear
11:50 AM - - - N/A% 30.31 in 10.0 mi West 8.1 mph - N/A   Clear
12:45 PM 50.0 °F - 24.8 °F 37% 30.30 in 10.0 mi NNW 6.9 mph - N/A   Partly Cloudy
1:45 PM 51.8 °F - 24.8 °F 35% 30.29 in 10.0 mi West 9.2 mph - N/A   Scattered Clouds
2:55 PM 53.6 °F - 26.6 °F 35% 30.30 in 10.0 mi West 6.9 mph - N/A   Scattered Clouds
3:45 PM 53.6 °F - 26.6 °F 35% 30.32 in 10.0 mi West 5.8 mph - N/A   Scattered Clouds
4:45 PM 50.0 °F - 26.6 °F 40% 30.33 in 10.0 mi West 4.6 mph - N/A   Scattered Clouds
5:45 PM 46.4 °F 45.2 °F 26.6 °F 46% 30.35 in 10.0 mi WSW 3.5 mph - N/A   Scattered Clouds
6:45 PM 44.6 °F - 26.6 °F 49% 30.38 in 10.0 mi Calm Calm - N/A   Scattered Clouds
7:45 PM 39.2 °F 34.2 °F 26.6 °F 61% 30.40 in 10.0 mi NNW 6.9 mph - N/A   Scattered Clouds
8:45 PM 37.4 °F - 26.6 °F 65% 30.41 in 10.0 mi Calm Calm - N/A   Scattered Clouds
9:15 PM 37.4 °F 34.9 °F - N/A% 30.42 in 10.0 mi NW 3.5 mph - N/A   Clear
9:35 PM 33.8 °F - - N/A% 30.43 in 10.0 mi Calm Calm - N/A   Clear
9:55 PM 35.6 °F 32.8 °F - N/A% 30.43 in 10.0 mi NNW 3.5 mph - N/A   Clear
10:15 PM 33.8 °F - - N/A% 30.44 in 10.0 mi Calm Calm - N/A   Clear
10:35 PM 35.6 °F - - N/A% 30.44 in 10.0 mi Calm Calm - N/A   Clear
10:55 PM 35.6 °F - - N/A% 30.44 in 10.0 mi Calm Calm - N/A   Clear
11:15 PM 33.8 °F - - N/A% 30.45 in 10.0 mi Calm Calm - N/A   Clear
11:35 PM 37.4 °F - - N/A% 30.45 in 10.0 mi Calm Calm - N/A   Clear
11:55 PM 35.6 °F - - N/A% 30.45 in 10.0 mi Calm Calm - N/A   Clear